Hourly Data Report for July 25, 2003

SHERBROOKE A
QUEBEC

45°26'00.000" N
71°41'00.000" W
241.40 m
7028124
71610
YSC

Download Data

Hourly Data (July 2003)
Hourly Data Report for July 25, 2003
TIME
LST
Temp Definition
°C
Dew Point Definition
°C
Rel Hum Definition
%
Precip. Amount Definition
mm

Wind Dir Definition
10's deg

Wind Spd Definition
km/h
Visibility Definition
km
Stn Press Definition
kPa
Hmdx Definition


Wind Chill Definition


Weather Definition


00:00 17.2 16.4 95   20 4 15.0 98.69      
01:00 17.4 16.4 94   24 6 11.3 98.72      
02:00 17.4 16.3 93   22 4 9.7 98.75      
03:00 17.3 16.1 93   21 7 11.3 98.79      
04:00 17.0 16.0 94   21 4 9.7 98.82      
05:00 17.1 16.1 94   21 4 11.3 98.85      
06:00 17.5 16.3 93   25 9 15.0 98.92      
07:00 17.8 16.2 90   23 6 24.1 98.96     Cloudy
08:00 18.7 16.5 87   24 9 24.1 98.97     Mostly Cloudy
09:00 20.5 16.9 80   24 13 24.1 98.99 26   Mostly Cloudy
10:00 21.2 16.8 76   26 15 24.1 99.03 26   Mostly Cloudy
11:00 24.3 18.1 68   27 15 24.1 99.02 30   Mostly Cloudy
12:00 24.2 16.1 61   24 11 24.1 99.01 29   Mainly Clear
13:00 25.5 14.8 52   27 20 24.1 99.02 29   Mainly Clear
14:00 26.6 13.8 45   25 24 24.1 99.02 30   Mainly Clear
15:00 26.5 13.7 45   27 22 24.1 99.00 30   Mainly Clear
16:00 26.3 15.2 50   27 19 24.1 98.98 30   Mainly Clear
17:00
18:00
19:00
20:00
21:00 18.8 12.6 67   22 7 15.0 99.15      
22:00 18.0 12.8 72   22 9 15.0 99.17      
23:00 17.2 12.5 74   22 6 15.0 99.19      

Notes on Data Quality.

Legend

  • E = Estimated
  • M = Missing
  • NA = Not Available*
  • [empty] = Indicates an unobserved value
Date modified: